[Date Prev][Date Next][Thread Prev][Thread Next] - [Date Index][Thread Index][Author Index]
2 LIne ISS Keps 7-7
- Subject: [sarex] 2 LIne ISS Keps 7-7
- From: "Dave Larsen PhD" <doc@xxxxxxxxxxx>
- Date: Sat, 7 Jul 2001 03:46:32 -0700
ISS
1 25544U 98067A 01188.16413194 .00037016 00000-0 38831-3 0 1790
2 25544 51.5717 347.5993 0016235 253.4801 89.8736 15.63840328150195
----
Via the sarex mailing list at AMSAT.ORG courtesy of AMSAT-NA.
To unsubscribe, send "unsubscribe sarex" to Majordomo@amsat.org
AMSAT Home